Regional Weather Roundup
Issued by NWS

Home | Current Version | Previous Version | Graphics & Text | Print | Product List | Glossary Off
Versions: 1 2 3 4 5 6 7 8 9 10 11 12 13 14 15 16 17 18 19 20 21 22 23 24 25 26 27 28 29 30 31 32 33 34 35 36 37 38 39 40 41 42 43 44 45 46 47 48 49 50

000
ASUS43 KTOP 310608
RWRKS

WEATHER ROUNDUP FOR KANSAS
NATIONAL WEATHER SERVICE GOODLAND KS
100 AM CDT TUE MAY 31 2016

NOTE:  "FAIR" INDICATES FEW OR NO CLOUDS BELOW 12,000 FEET WITH NO
SIGNIFICANT WEATHER AND/OR OBSTRUCTIONS TO VISIBILITY.

KSZ001>006-013>018-027>032-041>047-310700-
NORTHWEST KANSAS

CITY           SKY/WX    TMP DP  RH WIND       PRES   REMARKS
GOODLAND       CLOUDY    51  50  96 NW6       29.94F
6HR MIN TEMP:  51; 6HR MAX TEMP:  79; 6HR PCP:  0.19;

HAYS           CLOUDY    59  50  72 NE10      29.97F
HILL CITY      CLOUDY    60  57  89 E3        29.87F
6HR MIN TEMP:  59; 6HR MAX TEMP:  82; 6HR PCP:  0.33;

RUSSELL        LGT RAIN  59  57  93 NE9       29.96F
6HR MIN TEMP:  59; 6HR MAX TEMP:  79; 6HR PCP:  0.16;

$$

KSZ061>065-074>080-084>089-310700-
SOUTHWEST KANSAS

CITY           SKY/WX    TMP DP  RH WIND       PRES   REMARKS
DODGE CITY     CLOUDY    64  53  67 NE20      29.96R THUNDER
6HR MIN TEMP:  64; 6HR MAX TEMP:  78;

ELKHART          N/A     63  59  87 S12         N/A
GARDEN CITY    CLOUDY    60  56  86 SE16G28   29.93F
6HR MIN TEMP:  57; 6HR MAX TEMP:  80; 6HR PCP:  0.31;

GREAT BEND     CLOUDY    70  57  64 SW6       29.97F
LIBERAL        CLOUDY    66  55  68 SE10      29.91R
PRATT          CLOUDY    63  60  90 SE8       29.94R
6HR MIN TEMP:  63; 6HR MAX TEMP:  78;

$$

KSZ066>073-081>083-090>101-310700-
SOUTHEAST KANSAS

CITY           SKY/WX    TMP DP  RH WIND       PRES   REMARKS
CHANUTE        CLOUDY    66  62  87 SE5       29.95F
6HR MIN TEMP:  64; 6HR MAX TEMP:  74;

COFFEYVILLE    CLEAR     62  60  93 CALM      29.95F
6HR MIN TEMP:  62; 6HR MAX TEMP:  72; 6HR PCP: TRACE;

HUTCHINSON     CLOUDY    65  62  90 SE7       29.95R
6HR MIN TEMP:  65; 6HR MAX TEMP:  81;

MEDICINE LODGE   N/A     67  63  87 VRB7      29.91F
NEWTON         CLOUDY    63  57  82 SE7       29.98S
PARSONS        MOCLDY    65  63  93 CALM      29.96F
6HR MIN TEMP:  65; 6HR MAX TEMP:  75;

WICHITA INTL   CLOUDY    66  62  87 SE8       29.93F
6HR MIN TEMP:  66; 6HR MAX TEMP:  78;

WICHITA JABRA  CLOUDY    64  61  90 SE8       29.94S
6HR MIN TEMP:  64; 6HR MAX TEMP:  76;

WINFIELD       CLOUDY    65  62  90 SE7       29.94F
6HR MIN TEMP:  65; 6HR MAX TEMP:  76;

$$

KSZ007>012-019>026-033>040-048>060-102>105-310700-
NORTHEAST KANSAS

CITY           SKY/WX    TMP DP  RH WIND       PRES   REMARKS
CONCORDIA      LGT RAIN  65  56  72 NW23G38   29.98R
6HR MIN TEMP:  66; 6HR MAX TEMP:  80;

EMPORIA        CLEAR     62  60  93 S7        29.96F
6HR MIN TEMP:  62; 6HR MAX TEMP:  76;

LAWRENCE       CLEAR     62  60  93 SE5       29.96F
6HR MIN TEMP:  62; 6HR MAX TEMP:  78;

MANHATTAN      CLOUDY    67  61  81 S7        29.95R
6HR MIN TEMP:  67; 6HR MAX TEMP:  81;

MARYSVILLE     CLOUDY    66  63  88 S8        29.94R
OLATHE IND     CLEAR     61  60  97 S6        29.98S
6HR MIN TEMP:  61; 6HR MAX TEMP:  75;

OLATHE EXE     CLEAR     60  59  96 S5        29.98R
6HR MIN TEMP:  60; 6HR MAX TEMP:  73;

SALINA         CLOUDY    67  62  84 S12       29.94R
6HR MIN TEMP:  66; 6HR MAX TEMP:  81;

TOPEKA BILLARD CLEAR     66  61  84 S7        29.95F
6HR MIN TEMP:  66; 6HR MAX TEMP:  79;

TOPEKA FORBES  CLEAR     66  62  87 S7        29.95F
6HR MIN TEMP:  66; 6HR MAX TEMP:  80;

$$




USA.gov is the U.S. government's official web portal to all federal, state and local government web resources and services.